Regional Weather Roundup
Issued by NWS

Home | Current Version | Previous Version | Graphics & Text | Print | Product List | Glossary On
Versions: 1 2 3 4 5 6 7 8 9 10 11 12 13 14 15 16 17 18 19 20 21 22 23 24 25 26 27 28 29 30 31 32 33 34 35 36 37 38 39 40 41 42 43 44 45 46 47 48 49 50
000
ASUS43 KFSD 262310
RWRSD

WEATHER ROUNDUP FOR SOUTH DAKOTA
NATIONAL WEATHER SERVICE SIOUX FALLS SD
500 PM CST WED NOV 26 2014

NOTE: "FAIR" INDICATES FEW OR NO CLOUDS BELOW 12,000 FEET WITH NO
SIGNIFICANT WEATHER AND/OR OBSTRUCTIONS TO VISIBILITY.


SDZ001>005-009-010-012>017-270000-
NORTHWEST AND NORTH CENTRAL SOUTH DAKOTA

CITY           SKY/WX    TMP DP  RH WIND       PRES   REMARKS
BUFFALO          N/A     22  17  81 NE12      30.21R WCI  10
FAITH            N/A     20  16  84 NE17      30.29R WCI   5
MOBRIDGE       CLOUDY    14   7  73 NE6       30.37R WCI   5
$$

SDZ012>016-024>037-041>051-057-063-072>074-270000-
SOUTHWEST AND SOUTH CENTRAL SOUTH DAKOTA

CITY           SKY/WX    TMP DP  RH WIND       PRES   REMARKS
RAPID CTY ARPT CLOUDY    31  24  75 CALM      30.26R
PIERRE         CLOUDY    18  10  71 E10       30.37R WCI   6
CUSTER         FLURRIES  25  19  78 W6        30.15R WCI  18
ELLSWORTH AFB  CLOUDY    32  25  74 CALM      30.26
PHILIP         MOCLDY    29  20  69 SW5       30.31R WCI  24
PINE RIDGE     CLOUDY    31  22  69 CALM      30.26R
SPEARFISH      LGT SNOW  28  27  93 N5        30.24R WCI  23
WINNER         FAIR      24  15  68 NE5       30.35R WCI  18
$$

SDZ004>011-016>023-039-040-270000-
NORTHEAST SOUTH DAKOTA

CITY           SKY/WX    TMP DP  RH WIND       PRES   REMARKS
ABERDEEN       CLOUDY     8  -1  66 N12       30.45R WCI  -7
WATERTOWN      CLOUDY     7  -1  70 N12       30.36R WCI  -8
SISSETON         N/A      5  -3  69 N14       30.43R WCI -12
$$

SDZ017-020-022-023-036>040-048>070-270000-
SOUTHEAST SOUTH DAKOTA

CITY           SKY/WX    TMP DP  RH WIND       PRES   REMARKS
SIOUX FALLS    PTCLDY    14   7  73 N9        30.33S WCI   2
HURON          PTCLDY     9   0  67 N8        30.43R WCI  -3
CHAMBERLAIN    CLOUDY    20   9  62 NE8       30.38S WCI  10
MITCHELL       CLOUDY    14   6  70 N16       30.42R WCI  -2
YANKTON        PTCLDY    16  10  79 NW7       30.39R WCI   6
$$

ABBREVIATIONS USED IN REMARKS
   TC - TEMPERATURE IN CELSIUS
  WCI - WIND CHILL INDEX
   HX - HEAT INDEX
  VSB - VISIBILITY



USA.gov is the U.S. government's official web portal to all federal, state and local government web resources and services.